Location: Hilton Head Island
(32.2163°N, 80.7526°W)
Time: 18:08:33
(UTC-04:00)

A-11 Canister half - Pass Details

Date: 19 February 2026
Orbit: 1525 x 1683 km, 47.3° (Epoch: 10 March)

Event Time Altitude Azimuth Distance (km) Brightness Sun altitude
Rises 21:48:30 0° 307° (NW) 4,675 12.2 -45.9°
Reaches altitude 10° 21:51:37 10° 312° (NW) 3,692 11.5 -46.5°
Enters shadow 21:56:39 35° 327° (NNW) 2,272 10.0 -47.5°
